THORAD AGENA D DEB, 4748

Orbit data source: Space-Track

THORAD AGENA D DEB, 4748 is space debris in SSO originally from a launch on Wed, 08 Apr 1970 UTC launched from the Air Force Western Test Range (AFWTR). Debris objects in space refer to the collection of defunct objects orbiting the Earth. Examples of debris include non-operational satellites, rocket bodies, and fragments generated from explosions, collisions, or faulty payload assembly.

Loading next visibility...
Identifier
4748, 1970-025CW
Orbit
SSO
Country
Flag of USUS
Related business
Manufacturer
Unknown
Mission
Spacecraft
Bus & Motor
Unknown
Mass
Unknown
Launch date (UTC)
1970-04-08 (56 years ago)
Launch vehicle
Unknown
Launch site
Air Force Western Test Range (AFWTR)
Object type
Payload
Rocket body
Debris
Shape & HBR
Unknown shape, 0.2 m
Radar Cross Section
Medium (>0.1 m² and <1 m²)

Expand to show TLE details & history
Last TLE update: 10 hours ago

TLE from 10 hours ago
0 THORAD AGENA D DEB
1  4748U 70025CW  26255.95178336  .00000222  00000-0  33709-3 0  9990
2  4748 100.1294  77.3645 0005235 259.5149 100.5403 13.64582062794925
Epoch: 2026-09-12T22:50Z
TLE epoch observation values (Epoch: 2026-09-12T22:50:34.082Z)
Latitude
0.00007°
Longitude
102.76907°
Altitude
1,022.587 km
Speed
7.34 km/s
True Right ascension
05h 09m 27s
True Declination
0° 00' 00"
Sunlit
Object was in daylight at epoch
Visualization orbit readout
Latitude
Unknown
Longitude
Unknown
Altitude
Unknown
Speed
Unknown
Apparent Right ascension
Unknown
Apparent Declination
Unknown
Sunlit
N/A
Visualization observer readout
Local Sidereal Time
01:28:04
Azimuth
Unknown
Elevation
Unknown
Doppler factor
Unknown
Orbital elements
Apogee altitude
1,020.262 km
Perigee altitude
1,012.52 km
Semi-major axis
7,394.528 km
Eccentricity
0.00052
Inclination
100.1294°
RAAN
77.3645°
Arg. of periapsis
259.5149°
True anomaly
100.59927°
Mean anomaly
100.5403°
Eccentric anomaly
100.56979°
Mean motion
3.41332 °/min
Orbital period
105.47 mins
BSTAR
0.00033709
Loading maneuver chart data...
Computing Atmospheric mass density...

Documentation

Showing up to 5 results
|